Location: Niagara
(43.2500°N, 79.0670°W)
Time: 01:55:01
(UTC-04:00)

Vanguard 1 Rocket - Visible Passes

Search period start: 18 October 2017 00:00
Search period end: 28 October 2017 00:00
Orbit: 655 x 4222 km, 34.3° (Epoch: 17 October)

Date Brightness Start Highest point End Pass type
(mag) Time Alt. Az. Time Alt. Az. Time Alt. Az.
18 Oct 10.3 06:55:48 10° S 06:58:50 12° SSE 07:01:23 10° SE visible
20 Oct 10.0 06:56:22 10° SSW 07:02:07 18° SSE 07:06:15 10° ESE visible
21 Oct 10.5 05:45:41 10° S 05:50:48 14° SSE 05:54:46 10° SE visible
22 Oct 10.9 04:38:06 10° SSE 04:39:09 10° SSE 04:40:09 10° SSE visible
22 Oct 9.7 06:57:53 10° SW 07:05:22 24° SSE 07:10:18 10° ESE visible
23 Oct 10.2 05:46:03 10° SSW 05:54:05 21° SSE 05:59:30 10° ESE visible
24 Oct 10.6 04:35:00 10° S 04:42:23 16° SSE 04:47:50 10° ESE visible
24 Oct 9.5 06:59:48 10° SW 07:08:37 31° S 07:14:01 10° ESE visible
25 Oct 11.1 03:26:33 10° SSE 03:30:19 11° SSE 03:33:38 10° SE visible
25 Oct 9.9 05:47:13 10° SSW 05:57:18 27° SSE 06:03:33 10° ESE visible
26 Oct 10.4 04:36:59 13° SSW 04:45:36 22° SSE 04:52:31 10° ESE visible
26 Oct 9.3 07:02:00 10° SW 07:11:50 37° S 07:17:35 10° ESE visible
27 Oct 10.8 03:30:33 16° SSE 03:33:29 17° SSE 03:40:26 10° ESE visible
27 Oct 9.7 05:48:49 10° SW 06:00:31 34° SSE 06:07:16 10° ESE visible
